OneWeb SL0684

operational
NORAD ID: 56720 Int'l Des: 2023-068 Owner: ONEWEBN Country: UK Constellation: oneweb
LEOCIRCULARPOLARONEWEB_TYPE

About OneWeb SL0684

Description loading...

Live Position

Loading 3D Globe...

Upcoming Passes

Altitude History

Altitude vs Time

uPlot chart will show altitude changes over time

Two-Line Element Set

1 56720U 23068L 26049.18572104 .00000160 00000-0 39003-3 0 9993
2 56720 87.8972 282.9401 0001734 135.8796 224.2473 13.15549781133604
Epoch: Feb 18, 2026 • Age: 15 hours

Current Status

Altitude 1205.4 km
Velocity 7.25 km/s
Sub-Earth Point 26.81°N, 152.82°W
Launch Date May 20, 2023
Age 2.7 years
Type internet

Technical Details

Classification Payload
Mass 148.00 kg
Dry Mass 140.00 kg
Total Mass 148.00 kg
Length 1.30 m
Diameter 1.00 m
Span 5.00 m
Shape Trapezoid+2 pan
Manufacturer ONEWUS
Bus Type ARROW
Phase Status In Orbit
Owner/State ONEWEBN/UK

Large Constellations

Loading constellations...